星链-32802 (STARLINK-32802)

导读

STARLINK-32802是美国SpaceX星链星座的卫星,于2025年1月21日发射升空,属于星链网络扩建部分,旨在为全球提供低延迟、高速率的宽带互联网服务,尤其覆盖偏远地区。该卫星依托SpaceX可重复使用火箭技术部署,是星链持续扩容全球卫星互联网组网的一部分。

Basic Information
目录编号:
62738
目录名称:
STARLINK-32802
国际标识:
2025-014D
轨道中心:
EARTH
卫星名称:
星链-32802
卫星全名:
星链-32802 (STARLINK-32802)
卫星状态:
在轨 (已飞行591 天)
发射日期:
2025-01-21 UTC
国别 :
美国 (US)
星等 :
--
Orbit Information
数据来源 国际轨道数据
星历时间: 2026-09-04T08:19:03+0800
11小时前
查看轨道信息
半长轴: 6861.179km
偏心率: 0.0001204
轨道倾角: 43.000°
近地点辐角 238.222°
升交点赤经 226.965°
平近点角 121.851°
近地点: 482.215km
远地点: 483.869km
周期: 94.267分钟
每日圈数: 15.275827
Detailed Information
固有亮度:
5
最大亮度:
2.5
卫星平台:
Starlink V1.0
覆盖范围:
全球
运营商:
太空探索技术公司
运营商所在国:
美国
制造商(研发单位):
太空探索技术公司
制造商所在国:
美国
使用方式:
暂无
Satellite Introduction
Starlink 计划是 SpaceX 推出的全球卫星互联网项目,通过发射低轨道卫星,为全球尤其是偏远地区提供高速、低延迟的互联网服务。自 2019 年起,Starlink 已部署数千颗卫星,旨在缩小全球数字鸿沟,推动互联网普及。该项目还为军事、航空等行业提供通信支持,带来广泛经济效益。
2D Orbit Map
3D Orbit Map
Orbit Altitude Analysis Chart
Orbit Inclination Analysis Chart
Orbit Comprehensive Analysis Chart
View Comprehensive Chart
Conjunction Data List
Event ID Objects TCA Miss Dist (km) Collision Risk Probability Collision Risk Index (CRI) Action
CDM_260829-102106-273806-659421
2026-08-29T
10:21:36+0000
0.305 km
远距离
3.749611E-4 高风险 0.86
CDM_260828-093106-273806-632521
2026-08-28T
09:31:30+0000
0.540 km
远距离
8.924005E-5 中风险 0.74
CDM_260829-023505-708406-273821
2026-08-29T
02:35:30+0000
0.568 km
远距离
7.700639E-5 中风险 0.73
CDM_260828-194306-273806-632521
2026-08-28T
19:43:28+0000
0.742 km
远距离
3.4952E-5 中风险 0.66
CDM_260831-084806-273806-762321
2026-08-31T
08:48:18+0000
0.578 km
远距离
3.356841E-5 中风险 0.66
CDM_260829-084706-273806-659421
2026-08-29T
08:47:27+0000
1.174 km
极远距离
9.937082E-6 低风险 0.55
CDM_260828-110506-273806-632521
2026-08-28T
11:05:39+0000
1.385 km
极远距离
4.250423E-6 低风险 0.48
CDM_260831-093506-273806-762321
2026-08-31T
09:35:22+0000
1.109 km
极远距离
3.873303E-6 低风险 0.47
CDM_260831-080106-273806-762321
2026-08-31T
08:01:13+0000
1.153 km
极远距离
3.403929E-6 低风险 0.46
CDM_260830-132305-213606-273822
2026-08-30T
13:23:41+0000
1.882 km
极远距离
2.544532E-6 低风险 0.43